Location: Newark
(54.3386°S, 169.8415°W)
Time: 00:05:09
(UTC+00:00)

Transit 2A Rocket - Pass Details

Date: 01 November 2019
Orbit: 594 x 909 km, 66.7° (Epoch: 20 November)

Event Time Altitude Azimuth Distance (km) Brightness Sun altitude
Rises 06:06:17 0° 242° (WSW) 3,471 11.1 2.7°
Reaches altitude 10° 06:09:12 10° 229° (SW) 2,570 9.4 2.3°
Maximum altitude 06:14:11 26° 173° (S) 1,727 7.1 1.6°
Drops below altitude 10° 06:19:16 10° 118° (ESE) 2,625 7.4 1.0°
Sets 06:22:15 0° 105° (ESE) 3,559 8.0 0.6°
